Wind_Speed
31 36 39 38 36 32 28 25 22 21 19 17 15 13 13 12 12 16 17 17 15 13 12 12 11 10 9 8 7 7 6 5 4 3 4 5 5 4 4 5 5 5 5
33 33 40 41 40 36 33 29 25 23 22 20 16 14 14 14 13 14 14 15 14 13 11 11 11 10 9 8 7 6 6 5 4 3 3 4 4 6 5 6 6 6 5
37 34 38 43 44 41 37 34 30 27 26 24 20 17 15 15 14 13 14 14 13 12 11 11 11 10 9 8 7 6 6 5 4 3 3 3 3 5 5 6 6 6 6
41 39 38 44 46 45 42 38 35 32 29 27 24 22 18 16 17 17 16 16 15 14 13 12 11 10 9 8 7 7 6 5 4 4 3 3 3 4 4 5 6 6 6
45 43 40 43 48 49 46 43 40 36 33 30 27 25 22 19 19 19 18 17 16 15 15 15 14 12 10 9 7 7 7 6 5 5 4 4 4 3 4 4 4 5 5
50 47 44 45 51 54 51 48 45 41 37 32 30 28 25 23 21 21 20 19 18 17 16 15 13 12 11 9 8 7 6 7 6 6 5 5 4 4 4 4 3 4 3
51 52 49 48 52 57 55 51 49 45 42 38 36 33 31 28 26 25 24 22 19 18 17 15 13 12 11 10 9 8 7 6 6 6 6 6 5 5 4 3 3 1 1
52 57 54 51 52 58 59 55 54 51 47 45 41 39 38 35 32 30 28 26 24 21 19 17 15 13 12 12 10 10 9 8 8 7 7 6 6 6 5 4 3 3 3
56 57 57 54 52 58 61 60 57 56 53 49 47 45 45 41 35 34 31 29 27 25 23 21 19 17 16 14 13 12 11 10 9 9 9 9 8 7 7 6 5 6 6
57 58 61 59 54 56 62 63 60 58 56 55 51 49 44 40 38 35 32 31 29 27 26 24 23 21 19 18 16 15 14 14 13 13 12 11 10 10 10 9 9 9 9
63 56 65 61 58 57 61 64 64 61 60 58 55 52 48 46 40 36 33 33 32 31 30 29 26 24 23 21 20 19 19 18 16 16 16 15 14 14 14 13 12 12 13
65 61 62 65 59 57 58 63 65 63 62 60 56 53 51 50 44 40 39 36 34 31 30 30 29 27 27 26 24 23 22 22 21 21 20 19 18 18 18 17 17 16 16
58 65 61 67 69 61 57 62 66 66 62 61 57 55 52 49 43 39 40 37 35 36 36 35 34 27 31 31 29 27 26 25 25 24 23 23 22 21 21 21 21 20 20
51 38 67 69 73 65 63 61 66 67 64 61 59 57 52 49 48 44 43 41 41 39 39 37 36 37 36 33 30 31 31 30 29 27 27 27 26 25 25 25 24 23 24
44 60 63 31 65 69 67 62 63 66 66 62 61 59 55 49 47 49 49 47 45 45 42 43 37 36 31 35 32 31 33 32 32 31 30 30 30 28 28 27 26 26 26
46 44 49 50 48 70 69 60 63 65 66 62 61 61 59 55 52 51 50 49 50 50 50 47 43 37 37 38 38 41 39 35 34 35 34 33 33 33 31 30 30 30 29
39 38 42 39 45 54 54 60 61 64 64 62 60 62 59 55 54 52 52 52 53 53 52 51 48 44 47 44 48 42 48 44 37 35 35 35 36 36 35 33 32 31 31
45 28 45 41 55 50 62 56 68 51 60 63 63 63 62 58 60 57 54 55 56 56 54 50 48 50 49 47 44 48 44 42 43 40 38 38 38 38 37 37 35 34 34
41 32 18 35 43 51 51 61 53 42 62 63 61 60 58 57 58 59 56 54 52 51 50 49 48 51 50 48 46 44 47 41 41 42 43 41 42 40 40 40 40 38 38
33 39 51 41 21 62 52 46 59 59 35 57 64 61 53 53 52 52 51 51 49 50 52 52 51 52 50 46 40 36 40 42 40 41 43 43 42 41 41 42 41 41 40
10 19 23 32 45 20 21 35 46 41 66 47 63 64 59 55 53 55 53 53 51 49 51 52 53 52 51 46 42 36 40 42 42 40 38 39 40 42 41 41 41 41 41
3 11 11 17 19 18 24 22 20 32 25 50 37 61 66 60 57 55 56 55 54 53 53 55 55 54 50 47 43 42 42 43 44 42 41 41 42 44 44 46 45 46 48
13 3 14 14 22 23 28 28 29 28 27 29 31 37 56 66 63 61 58 56 57 58 57 56 57 57 51 48 45 46 48 49 50 45 48 48 46 46 45 46 46 44 49
19 15 5 4 12 16 22 26 28 26 35 36 34 34 42 51 70 69 61 62 54 54 54 58 56 54 54 50 50 49 51 52 56 53 52 54 52 50 48 46 43 44 43
18 16 14 9 2 8 18 26 29 33 39 38 35 42 34 45 42 48 58 53 57 52 44 54 57 59 56 55 53 51 54 54 55 55 47 50 52 50 48 50 51 44 44
17 15 14 12 8 4 4 14 22 26 31 33 34 34 42 42 43 48 45 58 52 54 54 41 49 57 59 56 57 58 55 55 57 61 49 58 63 57 55 59 45 54 60
Wind_Direction
239 231 221 217 215 211 210 208 204 203 197 203 213 200 183 173 182 191 190 186 186 187 190 187 186 186 182 175 175 169 158 143 137 123 108 96 89 90 100 100 98 99 95
240 236 227 220 217 213 211 210 208 207 203 202 213 208 193 182 189 188 191 189 186 185 189 188 184 190 186 186 183 186 178 166 153 146 115 105 93 88 85 88 89 81 80
238 237 233 225 220 215 211 210 207 207 206 203 203 216 201 188 194 198 198 191 189 185 190 194 192 201 202 203 201 205 202 195 181 172 154 131 118 100 90 90 86 87 93
236 237 233 228 221 216 212 211 210 209 207 206 202 209 210 194 193 202 207 201 199 196 197 203 208 212 220 224 224 226 224 219 218 202 185 171 151 129 119 109 102 95 86
233 236 235 230 223 219 214 212 212 212 211 210 205 210 211 202 195 205 207 211 210 209 208 208 210 218 225 229 235 239 238 233 225 218 202 190 167 146 132 121 109 101 96
234 232 234 229 224 220 215 212 213 211 213 212 211 210 212 208 201 203 207 209 211 212 216 217 216 218 221 223 226 232 230 229 223 216 205 190 175 152 138 121 115 109 101
234 231 231 230 224 221 218 214 214 211 213 209 213 210 212 212 207 204 210 209 212 213 215 216 215 215 218 220 217 217 219 218 216 213 205 195 180 169 163 153 155 143 129
227 231 230 231 225 222 218 215 214 213 212 213 212 214 213 211 212 208 211 214 213 214 217 220 222 223 222 221 219 218 218 212 210 205 206 205 201 196 193 201 211 237 255
228 229 230 230 227 223 220 216 215 214 213 212 214 218 212 213 214 215 214 218 221 220 220 221 222 225 228 230 231 229 227 223 221 218 215 215 221 228 229 233 242 254 269
228 227 227 229 229 225 220 219 217 216 216 216 215 217 222 227 221 217 216 218 223 226 228 226 226 228 232 235 237 237 238 233 229 229 230 232 234 240 247 252 256 262 268
222 224 226 227 228 226 223 219 218 218 218 219 218 221 221 221 220 227 226 221 223 223 225 230 230 231 232 234 238 241 243 243 240 238 239 240 243 248 252 255 259 262 267
220 223 224 227 225 227 225 221 219 220 221 220 220 221 226 227 221 223 226 222 227 230 231 231 229 233 236 235 236 238 241 245 245 243 241 241 241 245 250 255 259 261 264
240 215 225 225 224 222 225 223 219 219 221 223 221 221 225 228 229 231 233 234 234 233 231 229 228 236 241 236 234 234 239 241 245 248 248 247 244 245 249 252 256 260 264
231 232 229 227 225 223 223 222 220 219 221 222 221 223 225 228 230 234 232 232 233 236 236 237 243 247 248 237 237 240 238 240 241 243 247 249 248 247 249 252 256 260 263
241 235 233 204 218 225 223 223 221 219 219 221 222 221 226 230 232 235 238 240 241 241 242 241 246 245 254 239 241 244 241 239 241 242 244 248 250 249 249 252 254 257 261
251 261 265 257 249 213 231 227 221 219 219 221 223 224 228 228 232 236 239 242 242 244 244 246 249 247 249 248 247 250 248 240 238 237 240 245 249 251 251 252 255 256 260
263 267 263 248 240 208 228 228 223 221 219 221 223 224 229 230 232 235 238 242 243 244 245 247 250 249 248 252 258 252 242 237 237 238 239 243 247 251 254 255 256 258 258
264 271 243 261 228 230 234 201 211 216 219 224 224 225 227 230 233 234 236 241 246 247 248 248 249 249 252 258 258 256 241 237 237 238 242 245 247 250 254 257 258 259 262
260 236 224 236 228 227 208 215 223 218 224 228 225 227 228 230 232 234 235 237 239 241 244 244 245 248 249 255 265 249 235 236 236 237 241 244 247 249 250 255 258 262 264
250 248 260 264 241 210 223 222 217 238 218 219 219 224 227 230 230 229 231 235 239 240 242 243 245 249 249 253 252 237 234 237 238 238 240 244 247 251 251 254 258 261 264
213 245 260 264 258 233 253 246 238 261 240 231 217 229 223 227 231 233 234 238 239 242 243 242 242 247 247 247 244 242 237 240 242 242 244 244 247 247 249 253 257 259 260
245 256 240 265 253 247 247 255 267 239 263 241 223 219 224 225 229 233 236 237 242 245 245 243 241 244 246 247 245 244 244 248 251 250 256 255 257 255 254 256 261 260 261
35 339 277 253 260 262 250 248 249 251 250 263 263 233 229 224 228 230 233 238 242 243 245 244 242 245 246 244 248 247 249 252 255 254 258 257 259 260 259 261 260 260 261
47 47 47 220 244 256 255 249 248 240 245 242 261 259 238 234 230 231 235 239 239 246 240 240 243 247 245 243 241 246 251 254 257 252 251 256 258 261 262 262 261 261 263
27 36 36 23 341 241 246 253 250 247 239 248 240 250 255 247 244 233 236 249 237 241 243 241 242 245 244 241 246 248 251 255 257 257 257 261 265 265 262 259 264 265 258
359 3 8 13 19 348 277 242 242 238 239 241 236 242 238 247 246 245 244 241 244 242 238 240 242 245 243 245 249 251 253 256 265 260 256 264 265 263 256 257 255 260 257
Height
3147 3150 3153 3157 3161 3164 3166 3168 3170 3172 3174 3177 3179 3183 3185 3188 3191 3193 3195 3197 3199 3202 3204 3207 3209 3211 3212 3214 3216 3217 3218 3219 3220 3221 3221 3221 3222 3222 3222 3223 3224 3224 3224
3142 3145 3148 3151 3155 3160 3163 3166 3168 3171 3172 3175 3177 3181 3183 3187 3190 3192 3195 3197 3199 3201 3204 3206 3208 3210 3212 3213 3215 3217 3218 3219 3220 3221 3221 3222 3222 3223 3223 3224 3224 3225 3225
3135 3139 3142 3146 3150 3154 3158 3161 3164 3168 3170 3172 3176 3178 3182 3185 3188 3191 3194 3196 3198 3200 3203 3205 3208 3210 3212 3213 3214 3216 3218 3219 3220 3221 3221 3222 3222 3223 3223 3224 3224 3225 3225
3127 3131 3134 3139 3143 3147 3153 3156 3160 3163 3166 3169 3173 3175 3180 3183 3186 3189 3192 3195 3197 3199 3202 3205 3207 3209 3211 3212 3213 3215 3217 3218 3219 3220 3221 3222 3222 3223 3223 3224 3225 3225 3226
3119 3122 3127 3131 3135 3140 3145 3151 3154 3158 3162 3165 3169 3173 3177 3181 3183 3187 3189 3192 3195 3198 3200 3202 3205 3207 3209 3211 3212 3214 3215 3217 3218 3219 3220 3221 3222 3223 3223 3224 3224 3225 3226
3111 3114 3118 3121 3127 3131 3136 3141 3147 3152 3157 3162 3165 3168 3173 3177 3180 3183 3186 3189 3192 3195 3198 3201 3203 3205 3207 3208 3210 3212 3214 3215 3217 3218 3220 3220 3221 3222 3223 3223 3224 3225 3225
3099 3103 3107 3111 3116 3121 3127 3134 3140 3145 3150 3154 3158 3162 3166 3171 3175 3178 3181 3185 3188 3192 3195 3198 3200 3203 3205 3207 3209 3210 3212 3214 3215 3217 3219 3220 3221 3221 3222 3223 3224 3224 3225
3084 3090 3097 3101 3106 3112 3118 3124 3129 3134 3141 3145 3150 3155 3157 3162 3168 3172 3176 3180 3184 3187 3191 3194 3197 3200 3203 3205 3207 3208 3210 3212 3213 3215 3217 3218 3219 3220 3221 3222 3223 3223 3224
3071 3079 3087 3092 3097 3102 3107 3114 3120 3124 3131 3137 3141 3147 3147 3152 3160 3165 3171 3175 3179 3183 3186 3190 3193 3196 3199 3202 3204 3206 3208 3210 3211 3213 3215 3216 3217 3218 3219 3220 3221 3222 3222
3057 3066 3073 3080 3088 3092 3097 3105 3112 3117 3122 3126 3132 3138 3145 3151 3153 3159 3165 3170 3173 3177 3181 3185 3188 3192 3195 3198 3200 3203 3205 3207 3208 3210 3211 3213 3215 3216 3217 3218 3219 3219 3220
3036 3047 3059 3068 3075 3080 3087 3094 3101 3108 3112 3119 3123 3130 3136 3141 3147 3152 3158 3162 3166 3170 3175 3178 3182 3186 3189 3193 3196 3199 3201 3203 3205 3207 3208 3209 3210 3211 3213 3214 3215 3216 3216
2993 3033 3045 3054 3062 3070 3076 3084 3091 3099 3104 3109 3118 3122 3128 3132 3139 3145 3150 3155 3161 3166 3170 3173 3176 3180 3183 3187 3190 3194 3196 3199 3201 3202 3204 3205 3207 3208 3208 3210 3211 3212 3213
3001 3010 3030 3036 3042 3053 3061 3072 3080 3088 3094 3100 3108 3113 3120 3127 3136 3140 3144 3149 3153 3156 3160 3164 3169 3173 3177 3181 3184 3187 3190 3192 3195 3197 3199 3200 3202 3203 3204 3204 3206 3207 3208
2997 2992 3010 3018 3028 3045 3051 3055 3068 3077 3084 3091 3099 3105 3111 3119 3126 3131 3136 3140 3143 3147 3151 3157 3162 3166 3170 3174 3178 3181 3182 3185 3188 3190 3193 3195 3196 3197 3198 3199 3200 3202 3202
2987 2984 2988 2964 3001 3027 3042 3047 3055 3064 3072 3080 3088 3095 3101 3110 3117 3123 3126 3131 3136 3137 3142 3147 3152 3159 3163 3167 3171 3174 3176 3178 3180 3182 3185 3188 3189 3191 3191 3192 3194 3195 3196
2981 2984 2981 2983 2983 3011 3028 3036 3047 3055 3062 3069 3076 3084 3090 3099 3106 3112 3116 3121 3125 3128 3132 3139 3144 3150 3155 3157 3160 3164 3168 3170 3171 3174 3175 3178 3181 3183 3184 3185 3187 3188 3189
2977 2978 2986 2993 2998 3003 3014 3024 3034 3043 3051 3060 3067 3072 3079 3089 3095 3102 3106 3110 3114 3117 3122 3128 3133 3139 3140 3144 3148 3152 3157 3160 3163 3166 3168 3169 3172 3174 3176 3178 3179 3181 3182
2974 2978 2976 2981 2990 2989 2975 2986 3011 3010 3037 3049 3057 3063 3068 3077 3084 3091 3096 3099 3104 3109 3113 3118 3122 3124 3127 3133 3136 3139 3145 3149 3153 3157 3159 3161 3163 3165 3168 3170 3172 3173 3174
2964 2967 2971 2974 2980 2985 2986 2999 3004 3000 3023 3035 3045 3051 3061 3065 3071 3078 3083 3088 3094 3099 3102 3106 3110 3112 3118 3121 3123 3123 3129 3136 3142 3147 3149 3151 3153 3155 3158 3160 3162 3164 3166
2962 2967 2969 2969 2970 2974 2984 2989 2998 2997 2998 3014 3029 3038 3049 3052 3061 3067 3072 3079 3085 3087 3092 3094 3096 3098 3105 3110 3112 3114 3118 3124 3131 3136 3140 3142 3144 3146 3147 3150 3153 3155 3156
2962 2961 2965 2964 2971 2969 2974 2979 2988 2994 2993 3000 3015 3025 3034 3042 3051 3056 3060 3067 3072 3076 3079 3082 3084 3086 3091 3097 3101 3109 3112 3117 3120 3124 3128 3131 3134 3135 3137 3140 3142 3144 3146
2954 2961 2963 2966 2965 2961 2970 2975 2977 2983 2987 2993 3000 3006 3020 3028 3035 3042 3048 3054 3059 3063 3066 3069 3074 3073 3080 3087 3093 3098 3103 3103 3106 3114 3116 3119 3122 3123 3127 3128 3132 3134 3135
2950 2947 2955 2960 2959 2961 2966 2966 2969 2975 2980 2986 2990 2993 3003 3009 3017 3024 3032 3039 3044 3049 3054 3059 3061 3065 3071 3078 3085 3086 3089 3093 3097 3105 3103 3103 3108 3111 3115 3118 3119 3120 3121
2954 2951 2950 2955 2955 2954 2956 2961 2963 2967 2974 2979 2982 2982 2985 2990 2996 3005 3019 3026 3031 3034 3039 3045 3050 3056 3061 3067 3069 3074 3078 3081 3082 3086 3089 3087 3095 3098 3102 3104 3106 3107 3109
2950 2951 2954 2953 2951 2949 2950 2955 2958 2962 2970 2972 2971 2975 2975 2982 2987 2995 3007 3013 3020 3023 3028 3032 3038 3043 3047 3052 3057 3062 3061 3064 3066 3070 3074 3076 3080 3084 3087 3091 3093 3094 3096
2951 2951 2952 2951 2951 2948 2948 2950 2954 2958 2958 2959 2961 2966 2969 2974 2977 2984 2993 2999 3005 3014 3013 3018 3023 3028 3034 3040 3044 3047 3051 3051 3053 3056 3063 3064 3067 3071 3070 3076 3079 3082 3083